SB KEPS @ AMSAT $ORB13034.N 2Line Orbital Elements 13034.AMSAT
HR AMSAT ORBITAL ELEMENTS FOR AMATEUR SATELLITES IN NASA FORMAT Send SUBSCRIBE KEPS/UNSUBSCRIBE KEPS to [email protected] only BID: ORB13034.N
DECODE 2-LINE ELSETS WITH THE FOLLOWING KEY: 1 AAAAAU 00 0 0 BBBBB.BBBBBBBB .CCCCCCCC 00000-0 00000-0 0 DDDZ 2 AAAAA EEE.EEEE FFF.FFFF GGGGGGG HHH.HHHH III.IIII JJ.JJJJJJJJKKKKKZ KEY: A-CATALOGNUM B-EPOCHTIME C-DECAY D-ELSETNUM E-INCLINATION F-RAAN G-ECCENTRICITY H-ARGPERIGEE I-MNANOM J-MNMOTION K-ORBITNUM Z-CHECKSUM
TO ALL RADIO AMATEURS BT
AO-07 1 07530U 74089B 13034.02947209 -.00000009 00000-0 21261-3 0 5976 2 07530 101.4215 028.4608 0011865 188.7323 203.7105 12.53594353748975 FO-29 1 24278U 96046B 13034.87005509 -.00000001 00000-0 32700-4 0 396 2 24278 098.5759 111.1670 0350856 149.4300 212.7811 13.52995783813289 SO-33 1 25509U 98061B 13034.55486885 .00000214 00000-0 32243-4 0 4254 2 25509 031.4314 104.1550 0351543 068.1521 064.1884 14.28958143745764 RS-22 1 27939U 03042A 13034.53043977 .00000292 00000-0 63790-4 0 1341 2 27939 097.7973 229.3512 0012295 250.6010 109.3864 14.64309847499730 VO-52 1 28650U 05017B 13034.64727846 .00000926 00000-0 11795-3 0 3345 2 28650 097.5770 060.0712 0026263 003.0294 357.1069 14.83548504419288 HO-68 1 36122U 09072B 13034.73353881 -.00000044 00000-0 00000 0 0 2510 2 36122 100.3264 095.0607 0007234 301.6247 058.4166 13.16301866150852 UO-11 1 14781U 84021B 13034.24892166 .00000413 00000-0 60430-4 0 935 2 14781 097.9214 097.3721 0008700 013.4434 346.7008 14.80744185554114 AO-16 1 20439U 90005D 13033.86743422 .00000043 00000-0 31924-4 0 6669 2 20439 098.4589 337.1063 0010892 190.2049 203.1255 14.32136008203013 LO-19 1 20442U 90005G 13034.49980693 .00000031 00000-0 27376-4 0 5994 2 20442 098.4273 339.9421 0012044 179.6072 292.5937 14.32349610203297 AO-27 1 22825U 93061C 13034.87182069 .00000038 00000-0 31830-4 0 3051 2 22825 098.6050 340.4079 0007549 325.7542 104.5615 14.29531213 9584 IO-26 1 22826U 93061D 13034.42299169 .00000060 00000-0 40571-4 0 619 2 22826 098.5988 340.2803 0007984 319.7642 187.7969 14.29811752 9645 GO-32 1 25397U 98043D 13034.47181520 -.00000069 00000-0 -12156-4 0 9906 2 25397 098.3968 008.1702 0001048 021.2430 338.8795 14.23319532756929 NO-44 1 26931U 01043C 13034.08132351 .00000319 00000-0 15571-3 0 2508 2 26931 067.0501 245.2117 0004767 271.4787 088.5771 14.29886235592251 SO-50 1 27607U 02058C 13033.86787503 .00000130 00000-0 41300-4 0 9830 2 27607 064.5594 313.0014 0063024 200.0034 159.8582 14.72751538543938 CO-55 1 27844U 03031E 13033.66240855 .00000194 00000-0 10943-3 0 5707 2 27844 098.7033 044.6881 0008658 276.7356 149.1740 14.21154220497627 CO-57 1 27848U 03031J 13033.57750874 .00000176 00000-0 10170-3 0 5182 2 27848 098.7116 044.0470 0008566 283.4888 196.9560 14.20888280497544 AO-51 1 28375U 04025K 13034.37316314 .00000154 00000-0 58456-4 0 4778 2 28375 098.1808 355.3308 0084537 060.8878 300.0733 14.41063184452067 CP3 1 31129U 07012N 13033.94253958 .00000298 00000-0 77026-4 0 3811 2 31129 097.8897 034.2344 0101375 124.8888 236.1911 14.53444917307490 CO-65 1 32785U 08021C 13034.72654969 .00000869 00000-0 11171-3 0 5437 2 32785 097.7700 095.9780 0014690 030.6674 116.0411 14.83566356258085 PRISM 1 33493U 09002B 13034.78732081 .00001653 00000-0 19918-3 0 5026 2 33493 098.1987 187.5399 0017427 266.4327 093.4895 14.85212060218119 SOHLA-1 1 33496U 09002E 13034.53509076 .00000251 00000-0 49878-4 0 9596 2 33496 098.1208 151.0355 0006930 037.9135 019.4780 14.70180243216234 SO-67 1 35870U 09049F 13034.90598558 .00002517 00000-0 10110-3 0 7590 2 35870 097.2080 068.4403 0003690 075.6460 047.5624 15.25835935187923 TISAT-1 1 36799U 10035E 13034.79915516 .00001068 00000-0 13860-3 0 7744 2 36799 098.0440 118.7163 0015356 137.8444 222.3945 14.82823373138807 STUDSAT 1 36801U 10035G 13033.23579927 .00003310 00000-0 37712-3 0 5818 2 36801 098.0591 119.1828 0012815 127.0616 233.1748 14.86811788138677 FO-69 1 37227U 0 13033.48538872 .00000363 00000-0 58869-4 0 00540 2 37227 071.9706 163.6588 0018592 252.2953 107.6177 14.77359781009014 FO-70 1 37380U 0 13033.39486803 .00000396 00000-0 63841-4 0 00559 2 37380 071.9736 164.7119 0019089 249.6738 110.2396 14.77102072009070 ALMASAT-1 1 38078U 12006B 13034.84006814 .00013946 00000-0 35806-3 0 9715 2 38078 069.4830 148.8919 0722749 316.6870 037.9562 14.18625318 50297 XATCOBEO 1 38082U 12006F 13034.71716429 .00039382 33017-5 84650-3 0 8953 2 38082 069.4864 136.4223 0644706 309.7420 044.8579 14.39071439 50624 NOAA-10 1 16969U 86073A 13034.55168361 .00000087 00000-0 52931-4 0 2331 2 16969 098.5597 065.2149 0011135 276.0719 237.4120 14.27612442372875 NOAA-11 1 19531U 88089A 13034.30745860 -.00000007 00000-0 18572-4 0 2310 2 19531 098.7183 120.4625 0010100 283.8340 106.8393 14.15001292257196 NOAA-12 1 21263U 91032A 13034.60225515 .00000019 00000-0 26736-4 0 7071 2 21263 098.7114 060.9662 0012902 248.0115 111.9695 14.25545194129521 MET-3/5 1 21655U 91056A 13034.47105607 .00000030 00000-0 44843-4 0 6112 2 21655 082.5600 348.7696 0014555 104.1769 256.0971 13.17043728 32330 MET-2/21 1 22782U 93055A 13034.49025505 .00000045 00000-0 27109-4 0 6544 2 22782 082.5477 208.9820 0021988 221.3984 190.7372 13.83698067981156 OKEAN-4 1 23317U 94066A 13034.57419881 .00000651 00000-0 74663-4 0 1292 2 23317 082.5401 174.8081 0020275 311.2882 048.6585 14.84231116989124 NOAA-14 1 23455U 94089A 13034.59579198 -.00000000 00000-0 22964-4 0 1892 2 23455 098.8124 121.0230 0010008 022.4285 337.7324 14.13891690933493 NOAA-15 1 25338U 98030A 13034.25438254 .00000023 00000-0 28556-4 0 6021 2 25338 098.7132 025.2607 0011072 153.1454 207.0295 14.25174181765769 RESURS 1 25394U 98043A 13034.55334486 -.00000007 00000-0 14704-4 0 2975 2 25394 098.3471 016.9060 0000172 298.7779 211.0611 14.24319556757335 FENGYUN1 1 25730U 99025A 13033.94741810 .00002072 00000-0 11932-2 0 7993 2 25730 098.8671 355.2251 0024567 062.2998 329.5794 14.10131033707124 OKEAN-0 1 25860U 99039A 13033.88691175 .00000339 00000-0 58485-4 0 8589 2 25860 097.9728 358.2891 0001271 133.3759 282.7600 14.74469319728564 NOAA-16 1 26536U 00055A 13034.26800547 .00000309 00000-0 19053-3 0 809 2 26536 099.0622 085.5884 0011014 150.2956 209.8896 14.12835775637668 NOAA-17 1 27453U 02032A 13034.46539033 .00000034 00000-0 32357-4 0 118 2 27453 098.3196 055.5959 0011543 193.5132 166.5765 14.24536389551681 NOAA-18 1 28654U 05018A 13034.33118564 .00000055 00000-0 55125-4 0 4932 2 28654 099.0812 000.7465 0013796 222.6310 137.3810 14.11765768397176 NOAA-19 1 33591U 09005A 13034.53289305 .00000405 00000-0 24743-3 0 6787 2 33591 098.8892 337.7413 0014928 087.5298 272.7546 14.11454756205646 HUBBLE 1 20580U 90037B 13033.49169982 .00000992 00000-0 59198-4 0 1675 2 20580 028.4698 075.5799 0002958 358.3587 001.6996 15.03254794 49407 ISS 1 25544U 98067A 13034.88488403 .00008530 00000-0 14493-3 0 1435 2 25544 051.6488 050.5014 0012572 232.0608 192.2793 15.52273302814003 CO-58 1 28895U 05043F 13033.64423744 .00000305 00000-0 71151-4 0 3955 2 28895 097.8840 255.4129 0018086 143.1739 217.0693 14.60951879387308 FALCON 1 30776U 07006E 13034.13732832 .00003330 00000-0 20608-3 0 5428 2 30776 035.4317 304.1762 0002836 243.2180 259.9930 15.09492184325145 MAST 1 31126U 07012K 13034.12544389 .00000201 00000-0 54485-4 0 6743 2 31126 097.8756 037.7479 0094399 110.5080 250.6270 14.54421772307833 CAPE1 1 31130U 07012P 13034.48599245 .00000288 00000-0 74785-4 0 6861 2 31130 097.8880 034.4054 0101773 123.9936 237.0977 14.53287798307360 COMPASS 1 32787U 08021E 13034.49298115 .00001688 00000-0 20397-3 0 5340 2 32787 097.7706 096.4621 0015071 028.7941 085.0464 14.84953759258128 AAUSAT2 1 32788U 08021F 13034.18893784 .00001681 00000-0 20115-3 0 5251 2 32788 097.7714 096.6925 0014635 029.6336 003.9098 14.85365949258110 DO-64 1 32789U 08021G 13034.29435381 .00003116 00000-0 34876-3 0 5488 2 32789 097.7857 099.8374 0014112 023.7458 034.6040 14.87540842258210 CO-66 1 32791U 08021J 13033.84486007 .00001073 00000-0 13437-3 0 5213 2 32791 097.7713 095.3533 0015588 031.1086 081.3754 14.84196800257948 RS-30 1 32953U 08025A 13034.85363629 .00000010 00000-0 00000 0 0 5626 2 32953 082.5038 151.0967 0019375 160.8441 199.3375 12.43031070213349 METEOR-M 1 35865U 09049A 13034.73570517 -.00000008 00000-0 15928-4 0 1894 2 35865 098.6224 090.3203 0003234 093.9440 266.2105 14.21879627175505 RS-38 1 35869U 09049E 13034.72094621 .00000016 00000-0 26459-4 0 1545 2 35869 098.6172 090.2561 0005379 097.0011 263.1777 14.22111595175525 JUGNU 1 37839U 11058B 13033.39412593 .00000620 00000-0 19019-3 0 3255 2 37839 019.9624 043.5388 0018281 237.5289 122.3311 14.12124701 67829 SRMSAT 1 37841U 11058D 13034.39953905 .00000264 00000-0 00000 0 0 3256 2 37841 019.9728 046.8750 0012329 207.9359 152.0403 14.10198038 67860 RAX-2 1 37853U 11061D 13034.49668456 .00001763 00000-0 14405-3 0 4162 2 37853 101.7118 186.3580 0239099 050.2194 311.9794 14.82297599 68634 AUBIESAT 1 37854U 11061E 13033.90490333 .00001868 00000-0 14929-3 0 4140 2 37854 101.7147 186.0972 0239459 050.9232 311.2999 14.82888082 68553 HRBE 1 37855U 11061F 13034.42190646 .00001731 00000-0 13984-3 0 4108 2 37855 101.7155 186.7055 0240061 049.6846 312.5061 14.82622686 68627 RS-39 1 38051U 11062C 13034.75813015 .00008432 00000-0 30685-3 0 1374 2 38051 051.6353 132.6661 0012944 143.7879 354.4136 15.28984387 57346 E-STAR 1 38079U 12006C 13034.67503324 .00033167 31960-5 73532-3 0 8623 2 38079 069.4841 139.4852 0668715 311.6073 042.9667 14.33426298 50536 GOLIAT 1 38085U 12006J 13034.65475485 .00032249 31745-5 71073-3 0 8038 2 38085 069.4884 140.8241 0676609 312.2861 042.2888 14.31880828 50495 HORYU-2 1 38340U 12025D 13034.89566336 .00000959 00000-0 16606-3 0 3534 2 38340 098.2026 341.5428 0012027 319.6928 040.3402 14.70592394 38529 RS-40 1 38736U 12041D 13034.53895877 .00000010 00000-0 00000 0 0 1787 2 38736 082.4742 238.4637 0018003 261.0516 098.8536 12.42650463 23649 PROITERES 1 38756U 12047B 13034.80501523 .00000358 00000-0 62484-4 0 4740 2 38756 098.2673 109.3414 0012765 166.6933 193.4609 14.74065816 21741 AENEAS 1 38760U 0 13010.30862094 .00004933 00000-0 45118-3 0 00386 2 38760 064.6736 037.6222 0216021 256.7016 100.9927 14.80037176005582 CSSWE-D 1 38761U 0 13010.31251606 .00004126 00000-0 38000-3 0 00352 2 38761 064.6743 037.6425 0217594 256.6983 100.9785 14.79845475005606 CXBN-E 1 38762U 0 13010.30523402 .00005383 00000-0 48699-3 0 00360 2 38762 064.6804 037.6257 0218357 256.1531 101.5196 14.79997447005677 OBJECT F 1 38763U 0 13010.30916126 .00003917 00000-0 36085-3 0 00356 2 38763 064.6735 037.6208 0218061 256.7365 100.9342 14.79862223005613 CINEMA-G 1 38764U 0 13010.30690144 .00004197 00000-0 38547-3 0 00341 2 38764 064.6741 037.6060 0217613 256.7942 100.8813 14.79914111005571 CP5 1 38765U 0 13010.36660122 .00005184 00000-0 47138-3 0 00366 2 38765 064.6738 037.3618 0216618 256.5143 101.1776 14.80096794005582 RAIKO 1 38852U 98067CN 13034.23638894 .00029804 00000-0 36434-3 0 1325 2 38852 051.6494 050.0434 0013061 219.2637 140.7410 15.60060371 18863 FITSAT 1 1 38853U 98067CP 13034.23366584 .00038017 00000-0 43219-3 0 1303 2 38853 051.6495 049.2838 0009302 236.7196 123.2906 15.61878063 18929 TechEdSat 1 38854U 98067CQ 13034.52801891 .00066318 00000-0 62250-3 0 1469 2 38854 051.6418 045.9866 0005861 245.1282 114.9107 15.66523401 18990 F 1 1 38855U 98067CR 13034.48206633 .00062420 00000-0 59895-3 0 1492 2 38855 051.6465 046.4266 0008401 237.9137 122.1083 15.65978016 18870 WeWish 1 38856U 98067CS 13034.83529446 .00198697 00000-0 10795-2 0 1651 2 38856 051.6372 040.4950 0003874 190.1825 169.9494 15.78864587 18983 /EX